Observations for Trim Market St
| Time | AQI | Temp °C | Hum % | Pres Pa | CO μg/m³ | H₂S μg/m³ | NO μg/m³ | NO₂ μg/m³ | O₃ μg/m³ | SO₂ μg/m³ | PM1 μg/m³ | PM2.5 μg/m³ | PM10 μg/m³ |
|---|---|---|---|---|---|---|---|---|---|---|---|---|---|
| Tuesday 18 August 2026 | |||||||||||||
| 04:31 | 2 | 17.8 | 74 | 44,028 | 0.08 | 0 | 1.83 | 4.92 | 65.94 | 0 | 1.43 | 3.35 | 7.53 |
| 04:30 | 2 | 17.8 | 74 | 44,126 | 0.07 | 0 | 1.84 | 4.48 | 59.23 | 0 | 2.85 | 5.27 | 10.55 |
| 04:29 | 2 | 17.8 | 74 | 44,287 | 0.08 | 0 | 1.85 | 4.04 | 57.77 | 0 | 1.43 | 3.83 | 8.74 |
| 04:28 | 2 | 17.8 | 74 | 44,405 | 0.07 | 0 | 1.83 | 4.55 | 62.07 | 0 | 1.43 | 3.35 | 5.72 |
| 04:27 | 2 | 17.8 | 74 | 44,446 | 0.08 | 0 | 1.85 | 4.35 | 59.73 | 0 | 1.43 | 3.36 | 6.32 |
| 04:26 | 2 | 17.8 | 74 | 44,373 | 0.09 | 0 | 1.86 | 4.05 | 65.91 | 0 | 1.43 | 3.36 | 7.53 |
| 04:24 | 2 | 17.8 | 74 | 44,297 | 0.07 | 0 | 1.87 | 4.85 | 62.37 | 0 | 2.14 | 4.31 | 9.34 |
| 04:21 | 2 | 17.8 | 74 | 44,306 | 0.06 | 0 | 1.85 | 3.68 | 58.72 | 0 | 2.85 | 5.28 | 8.74 |
| 04:18 | 2 | 17.9 | 74 | 44,691 | 0.06 | 0 | 1.83 | 4.98 | 70.49 | 0 | 2.14 | 3.84 | 6.32 |
| 04:14 | 2 | 17.9 | 74 | 45,576 | 0.05 | 0 | 1.83 | 4.85 | 62.07 | 0 | 1.43 | 3.37 | 6.32 |
| 04:09 | 2 | 17.9 | 73 | 46,865 | 0.01 | 0 | 1.87 | 4.36 | 64.64 | 0 | 0.71 | 1.93 | 5.1 |
| 04:08 | 2 | 17.9 | 73 | 47,124 | 0.02 | 0 | 1.87 | 3.55 | 57.74 | 0 | 0.71 | 2.89 | 5.1 |
| 04:07 | 2 | 17.9 | 73 | 47,344 | 0.02 | 0 | 1.86 | 3.13 | 56.53 | 0 | 1.43 | 2.89 | 5.71 |
| 04:06 | 2 | 17.9 | 73 | 47,604 | 0.01 | 0 | 1.84 | 3.58 | 55.14 | 0 | 0.71 | 3.38 | 6.32 |
| 04:03 | 2 | 17.9 | 73 | 48,421 | 0.01 | 0 | 1.82 | 3.85 | 59.96 | 0 | 0.71 | 2.9 | 5.1 |
| 04:02 | 2 | 18 | 73 | 48,655 | 0 | 0 | 1.83 | 3.09 | 56.74 | 0 | 0.71 | 2.42 | 4.49 |
| 04:01 | 2 | 18 | 73 | 48,869 | 0 | 0 | 1.84 | 3.48 | 54.61 | 0 | 1.43 | 3.38 | 6.31 |
| 03:59 | 2 | 18 | 73 | 49,374 | 0 | 0 | 1.92 | 2.64 | 54.88 | 0 | 0.71 | 2.9 | 5.1 |
| 03:58 | 2 | 18 | 73 | 49,650 | 0 | 0 | 2.09 | 2.58 | 55.4 | 0 | 0.71 | 2.42 | 4.49 |
| 03:57 | 2 | 18 | 73 | 49,897 | 0.01 | 0 | 1.89 | 3.17 | 54.71 | 0 | 0.71 | 2.9 | 5.71 |